sat.trackr.live / text

‹ back to catalog

STARLINK-1876

NORAD 47161 · 2020-088AR

PAYLOAD ACTIVE UNKNOWN

§ Identity

Operator
Country
US
Launch date
2020-11-25
Launch site
AFETR
Launch vehicle
Mass (kg)
RCS (m²)

Purposes: comms

External: N2YO · Heavens-Above · Gunter

§ Orbital elements

Epoch: 2026-05-25T04:05:56.273280Z

Period
91.02 min
Inclination
53.0435°
Eccentricity
0.0006952
Mean motion
15.82029972 rev/d
Perigee alt
320.0 km
Apogee alt
329.4 km
Semi-major
6,702.8 km
B*
8.3851e-4
RAAN
252.3289°
Arg perigee
307.8586°
Mean anomaly
52.1806°
Rev number
30,429

§ Raw data

STARLINK-18761 47161U 20088AR  26145.17079020  .00177791  00000+0  83851-3 0  99902 47161  53.0435 252.3289 0006952 307.8586  52.1806 15.82029972304296

JSON: /api/v1/satellites/47161 · /tle

For live sub-satellite position, see the globe view (requires WebGL).

§ Visibility from observer

Set your observer location to see the next 7 days of passes ≥ 10°. The values pass through the URL so the page stays shareable.

No JS? Fill the form by hand. The geolocation button needs JavaScript.